DW1345 Weather Reports


time (UTC)temp
F
wind
direction
speed
knots
gust
knots
rain 1hr
in
rain 24hr
in
rain mn
in
humidity
%
barometer
mb
20221203060016 32 112 7.0 0.0 0.00 0.00 0.00 70 1035.7
20221203054514 32 90 6.1 0.0 0.00 0.00 0.00 69 1035.7
20221203053012 32 91 7.0 0.0 0.00 0.00 0.00 69 1035.9
20221203051515 32 94 6.1 0.0 0.00 0.00 0.00 70 1035.9
20221203050009 32 88 6.1 0.0 0.00 0.00 0.00 70 1036.1
20221203044511 32 136 6.1 0.0 0.00 0.00 0.00 71 1036.1
20221203043006 32 134 7.0 0.0 0.00 0.00 0.00 70 1036.1
20221203041504 32 101 7.0 0.0 0.00 0.00 0.00 71 1036.4
20221203040004 32 138 6.1 0.0 0.00 0.00 0.00 71 1036.5
20221203034502 32 136 6.1 0.0 0.00 0.00 0.00 71 1036.6
20221203033101 32 117 7.0 0.0 0.00 0.00 0.00 71 1036.7
20221203031558 32 111 6.1 0.0 0.00 0.00 0.00 71 1036.8
20221203030057 32 129 6.1 0.0 0.00 0.00 0.00 71 1036.9
20221203024602 32 66 6.1 0.0 0.00 0.00 0.00 71 1037.0
20221203023053 33 99 6.1 0.0 0.00 0.00 0.00 71 1037.0
20221203021549 33 82 6.1 0.0 0.00 0.00 0.00 71 1037.0
20221203020051 33 103 7.8 0.0 0.00 0.00 0.00 71 1037.1
20221203014550 33 90 7.8 0.0 0.00 0.00 0.00 70 1037.1
20221203013043 33 86 7.0 0.0 0.00 0.00 0.00 69 1037.0
20221203011546 33 70 7.0 0.0 0.00 0.00 0.00 70 1037.3
20221203010039 33 105 7.0 0.0 0.00 0.00 0.00 70 1037.3
20221203004538 33 126 6.1 0.0 0.00 0.00 0.00 70 1037.3
20221203003036 33 83 7.0 0.0 0.00 0.00 0.00 70 1037.4
20221203001536 34 88 7.0 0.0 0.00 0.00 0.00 71 1037.3
20221203000032 34 78 6.1 0.0 0.00 0.00 0.00 71 1037.2
20221202234532 34 104 7.0 0.0 0.00 0.00 0.00 72 1037.2
20221202233030 34 102 6.1 0.0 0.00 0.00 0.00 72 1037.4
20221202231540 34 76 7.0 0.0 0.00 0.00 0.00 71 1037.5
20221202230024 34 79 7.0 0.0 0.00 0.00 0.00 71 1037.5
20221202224523 34 125 7.8 0.0 0.00 0.00 0.00 71 1037.5
20221202223023 34 113 7.0 0.0 0.00 0.00 0.00 70 1037.5
20221202221522 34 108 7.8 0.0 0.00 0.00 0.00 70 1037.6
20221202220023 34 123 7.8 0.0 0.00 0.00 0.00 71 1037.7
20221202214520 34 117 7.8 0.0 0.00 0.00 0.00 72 1037.6
20221202213019 34 109 8.7 0.0 0.00 0.00 0.00 71 1037.6
20221202211520 35 82 8.7 0.0 0.00 0.00 0.00 71 1037.6
20221202210017 34 100 8.7 0.0 0.00 0.00 0.00 72 1037.7
20221202204520 34 115 8.7 0.0 0.00 0.00 0.00 72 1037.8
20221202203018 35 86 7.8 0.0 0.00 0.00 0.00 72 1037.9
20221202201514 35 137 7.0 0.0 0.00 0.00 0.00 70 1037.8
20221202200023 35 93 7.0 0.0 0.00 0.00 0.00 70 1037.9
20221202194513 35 147 6.1 0.0 0.00 0.00 0.00 70 1037.8
20221202193015 35 107 7.0 0.0 0.00 0.00 0.00 70 1037.8
20221202191512 35 74 7.0 0.0 0.00 0.00 0.00 69 1037.7
20221202190011 35 128 7.0 0.0 0.00 0.00 0.00 69 1037.6
20221202184510 35 99 6.1 0.0 0.00 0.00 0.00 70 1037.5
20221202183010 35 96 6.1 0.0 0.00 0.00 0.00 70 1037.6
20221202181509 35 124 6.1 0.0 0.00 0.00 0.00 72 1037.6
20221202180009 35 103 5.2 0.0 0.00 0.00 0.00 72 1037.5
20221202174508 35 77 6.1 0.0 0.00 0.00 0.00 71 1037.5
20221202173008 35 124 5.2 0.0 0.00 0.00 0.00 71 1037.6
20221202171507 35 114 6.1 0.0 0.00 0.00 0.00 71 1037.7
20221202170005 35 118 6.1 0.0 0.00 0.00 0.00 71 1037.6
20221202164504 36 89 6.1 0.0 0.00 0.00 0.00 70 1037.5
20221202163005 36 98 5.2 0.0 0.00 0.00 0.00 70 1037.4
20221202161508 36 122 6.1 0.0 0.00 0.00 0.00 70 1037.3
20221202160001 36 109 5.2 0.0 0.00 0.00 0.00 70 1037.4
20221202154501 36 134 5.2 0.0 0.00 0.00 0.00 69 1037.3
20221202153105 36 126 5.2 0.0 0.00 0.00 0.00 69 1037.3
20221202151600 36 119 5.2 0.0 0.00 0.00 0.00 69 1037.3
20221202150105 36 90 5.2 0.0 0.00 0.00 0.00 69 1037.2
20221202144557 36 96 6.1 0.0 0.00 0.00 0.00 69 1037.0
20221202143059 36 80 7.0 0.0 0.00 0.00 0.00 68 1037.1
20221202141558 36 113 6.1 0.0 0.00 0.00 0.00 68 1037.1
20221202140055 37 82 7.8 0.0 0.00 0.00 0.00 69 1037.0
20221202134557 37 116 6.1 0.0 0.00 0.00 0.00 68 1036.9
20221202133056 37 106 7.0 0.0 0.00 0.00 0.00 67 1036.9
20221202131553 37 103 7.0 0.0 0.00 0.00 0.00 67 1036.9
20221202130057 37 80 7.0 0.0 0.00 0.00 0.00 67 1036.8
20221202124611 37 124 6.1 0.0 0.00 0.00 0.00 68 1036.8
20221202123051 37 130 6.1 0.0 0.00 0.00 0.00 69 1036.9
20221202121553 37 93 7.0 0.0 0.00 0.00 0.00 70 1036.8
20221202120050 37 138 6.1 0.0 0.00 0.00 0.00 69 1036.8
20221202114549 36 72 6.1 0.0 0.00 0.00 0.00 70 1036.7
20221202113055 36 92 4.3 0.0 0.00 0.00 0.00 70 1036.8
20221202111548 37 94 5.2 0.0 0.00 0.00 0.00 70 1036.9
20221202110047 37 94 5.2 0.0 0.00 0.00 0.00 70 1036.9
20221202104546 37 87 4.3 0.0 0.00 0.00 0.00 70 1036.9
20221202103046 37 89 4.3 0.0 0.00 0.00 0.00 70 1036.9
20221202101545 37 92 5.2 0.0 0.00 0.00 0.00 70 1036.8
20221202100047 37 93 5.2 0.0 0.00 0.00 0.00 69 1036.7
20221202094543 37 85 5.2 0.0 0.00 0.00 0.00 69 1036.6
20221202093046 37 105 4.3 0.0 0.00 0.00 0.00 68 1036.6
20221202091555 37 74 4.3 0.0 0.00 0.00 0.00 68 1036.4
20221202090044 37 84 4.3 0.0 0.00 0.00 0.00 68 1036.4
20221202084539 37 84 4.3 0.0 0.00 0.00 0.00 68 1036.3
20221202083037 37 128 5.2 0.0 0.00 0.00 0.00 69 1036.2
20221202081535 37 108 6.1 0.0 0.00 0.00 0.00 70 1036.1
20221202080034 37 86 5.2 0.0 0.00 0.00 0.00 71 1036.0
20221202074534 36 93 4.3 0.0 0.00 0.00 0.00 71 1035.8
20221202073031 36 94 3.5 0.0 0.00 0.00 0.00 73 1035.9
20221202071537 36 86 4.3 0.0 0.00 0.00 0.00 74 1035.8
20221202070029 36 87 3.5 0.0 0.00 0.00 0.00 73 1035.8
20221202064528 36 100 4.3 0.0 0.00 0.00 0.00 73 1035.7
20221202063028 36 92 4.3 0.0 0.00 0.00 0.00 73 1035.6
20221202061528 36 96 4.3 0.0 0.00 0.00 0.00 74 1035.5